haerbin , China , ASIA

  • Sunday
    May 28

    Cloudy  Sunny

    77 °F  48 °F

    Southwest  Northwest

    4~5L   3~4L 

  • Monday
    May 29

    Sunny  Sunny

    77 °F  50 °F

    Southwest  West

    4~5L    

  • Tuesday
    May 30

    Cloudy  Cloudy

    72 °F  48 °F

    West  West

    3~4L    

  • Wednesday
    May 31

    Thundershower  Cloudy

    70 °F  48 °F

    North  West

    3~4L    

  • Thursday
    June 1

    Shower  Cloudy

    66 °F  46 °F

    East  East

    3~4L    

  • Friday
    June 2

    Sunny  Sunny

    68 °F  50 °F

    West  Southwest

    3~4L    

  • Saturday
    June 3

    Sunny  Sunny

    68 °F  50 °F

    West  West

        

Date   Weather Temperature Humidity Total_rain Visibility Wind
11:00 Cloudy 76°F 41.1% 0mm 12km Southwest  5.0m/s
14:00 Cloudy 77°F 41.2% 0mm 12km Southwest  5.0m/s
17:00 Cloudy 72°F 41.3% 0mm 12km Northwest  4.2m/s
20:00 Cloudy 64°F 32.5% 0mm 12km Northwest  2.6m/s
23:00 Sunny 56°F 39% 0mm 12km Northwest  2.5m/s
02:00 Sunny 52°F 45% 0mm 12km Northwest  1.7m/s
05:00 Sunny 49°F 49.7% 0mm 12km Southwest  2.2m/s
08:00 Sunny 62°F 38% 0mm 12km Southwest  2.6m/s
11:00 Sunny 71°F 25% 0mm 12km Southwest  4.3m/s
14:00 Sunny 77°F 31.4% 0mm 12km Southwest  4.8m/s
17:00 Sunny 76°F 31.5% 0mm 12km Southwest  3.6m/s
20:00 Sunny 70°F 32.2% 0mm 12km Northwest  3.7m/s
23:00 Sunny 60°F 45.8% 0mm 12km Northwest  3.9m/s
02:00 Sunny 50°F 52.8% 0mm 12km Northwest  3.0m/s
05:00 Sunny 51°F 52.7% 0mm 12km Southwest  2.1m/s
08:00 Sunny 64°F 39.3% 0mm 12km Southwest  3.2m/s
11:00 Cloudy 71°F 39.5% 0mm 12km Southwest  4.2m/s
14:00 Cloudy 67°F 41.6% 0mm 12km Northeast  3.4m/s
17:00 Cloudy 65°F 43.6% 0mm 12km Northeast  2.8m/s
20:00 Cloudy 64°F 56.4% 0mm 12km Northeast  1.8m/s
23:00 Cloudy 56°F 73.1% 0mm 12km Northwest  2.8m/s
02:00 Cloudy 52°F 67% 0mm 12km Northwest  1.7m/s
05:00 Cloudy 49°F 61.9% 0mm 12km Northwest  1.5m/s
08:00 Cloudy 62°F 43.3% 0mm 12km Northwest  2.8m/s
11:00 Thundershower 67°F 26.8% 2.3mm 12km Northwest  4.0m/s
14:00 Thundershower 69°F 40.5% 2.3mm 12km Northwest  4.3m/s
17:00 Thundershower 69°F 40.5% 2.3mm 12km Northwest  3.3m/s
20:00 Thundershower 61°F 43.6% 2.3mm 12km Southeast  1.1m/s
23:00 Cloudy 53°F 64.2% 0mm 12km Southeast  0.1m/s
02:00 Cloudy 53°F 63.2% 0mm 12km Southwest  0.8m/s
05:00 Cloudy 49°F 64% 0mm 12km Southwest  1.6m/s
08:00 Cloudy 53°F 64.8% 0mm 12km Southwest  1.6m/s
11:00 Shower 59°F 35.6% 2.3mm 12km Northeast  5.0m/s
14:00 Shower 66°F 42.6% 2.3mm 12km Northeast  1.9m/s
17:00 Shower 64°F 43.2% 2.3mm 12km Northeast  2.0m/s
20:00 Shower 61°F 45.5% 2.3mm 12km Northeast  0.1m/s
23:00 Cloudy 51°F 58.7% 0mm 8km Northwest  2.4m/s
02:00 Cloudy 49°F 53.4% 0mm 12km Northeast  2.9m/s
05:00 Cloudy 47°F 52.7% 0mm 12km Northeast  1.1m/s
08:00 Cloudy 59°F 52% 0mm 12km Northeast  3.4m/s
11:00 Sunny 67°F 35% 0mm 12km Northeast  4.7m/s
14:00 Sunny 68°F 41.7% 0mm 12km Northeast  4.9m/s
17:00 Sunny 60°F 42.9% 0mm 12km Northeast  3.2m/s
20:00 Sunny 56°F 44% 0mm 12km Northeast  2.2m/s
23:00 Sunny 51°F 67.1% 0mm 12km Northeast  1.7m/s
02:00 Sunny 51°F 59.7% 0mm 8km Northeast  1.5m/s
05:00 Sunny 50°F 54.9% 0mm 12km Northeast  2.5m/s
08:00 Sunny 54°F 50.2% 0mm 12km Northeast  2.0m/s
11:00 Sunny 53°F 35.1% 0mm 12km Northeast  2.9m/s
14:00 Sunny 67°F 49.1% 0mm 12km Northwest  3.0m/s
17:00 Sunny 68°F 56.6% 0mm 12km Northeast  2.6m/s
20:00 Sunny 58°F 66.3% 0mm 12km Northwest  2.6m/s
23:00 Sunny 53°F 90.7% 0mm 12km Southwest  2.5m/s
02:00 Sunny 50°F 95.5% 0mm 12km Northwest  1.7m/s
05:00 Sunny 53°F 83.1% 0mm 4km Northwest  2.1m/s